FW0960 Weather Reports


time (UTC)temp
F
wind
direction
speed
knots
gust
knots
rain 1hr
in
rain 24hr
in
rain mn
in
humidity
%
barometer
mb
20260506170735 69 173 0.0 1.7 0.00 0.00 0.00 78 1011.6
20260506170233 69 84 0.9 1.7 0.00 0.00 0.00 77 1011.8
20260506165732 69 115 0.9 5.2 0.00 0.00 0.00 76 1011.9
20260506164222 70 164 0.9 4.3 0.00 0.00 0.00 74 1012.3
20260506163721 71 310 0.9 4.3 0.00 0.00 0.00 72 1012.6
20260506163218 72 169 0.9 3.5 0.00 0.00 0.00 72 1012.5
20260506162719 73 348 0.9 6.1 0.00 0.00 0.00 68 1012.5
20260506162216 73 348 0.9 6.1 0.00 0.00 0.00 68 1012.4
20260506161713 74 143 0.9 3.5 0.00 0.00 0.00 69 1012.4
20260506160213 74 134 0.9 3.5 0.00 0.00 0.00 67 1012.3
20260506155717 74 169 0.9 3.5 0.00 0.00 0.00 68 1012.6
20260506155208 73 267 0.0 2.6 0.00 0.00 0.00 69 1012.6
20260506154705 73 244 0.9 3.5 0.00 0.00 0.00 69 1012.6
20260506154203 73 113 0.9 3.5 0.00 0.00 0.00 69 1012.7
20260506153706 73 140 0.9 4.3 0.00 0.00 0.00 66 1012.6
20260506153205 73 124 0.9 4.3 0.00 0.00 0.00 67 1012.7
20260506152706 73 120 0.9 3.5 0.00 0.00 0.00 69 1012.7
20260506151146 73 143 0.0 2.6 0.00 0.00 0.00 69 1012.7
20260506150642 73 152 0.0 1.7 0.00 0.00 0.00 68 1012.6
20260506150148 73 119 0.0 3.5 0.00 0.00 0.00 69 1012.6
20260506145145 73 157 0.9 3.5 0.00 0.00 0.00 68 1012.7
20260506144640 73 210 0.9 3.5 0.00 0.00 0.00 70 1012.6
20260506144142 73 236 0.9 2.6 0.00 0.00 0.00 71 1012.5
20260506143642 73 119 0.9 2.6 0.00 0.00 0.00 70 1012.6
20260506143141 73 56 0.9 3.5 0.00 0.00 0.00 70 1012.7
20260506142639 72 101 0.9 3.5 0.00 0.00 0.00 69 1012.8
20260506141633 73 144 0.9 6.1 0.00 0.00 0.00 69 1012.7
20260506140635 72 17 0.9 2.6 0.00 0.00 0.00 69 1012.6
20260506140132 72 249 0.9 2.6 0.00 0.00 0.00 71 1012.6
20260506135631 71 127 0.9 2.6 0.00 0.00 0.00 72 1012.6
20260506134631 71 146 0.9 5.2 0.00 0.00 0.00 71 1012.7
20260506134134 71 202 0.9 5.2 0.00 0.00 0.00 72 1012.8
20260506133627 71 136 0.9 3.5 0.00 0.00 0.00 73 1012.8
20260506133121 70 337 0.9 2.6 0.00 0.00 0.00 73 1012.9
20260506132627 69 218 0.9 2.6 0.00 0.00 0.00 74 1012.9
20260506132127 69 44 0.0 1.7 0.00 0.00 0.00 75 1012.7
20260506131621 69 128 0.0 1.7 0.00 0.00 0.00 75 1012.9
20260506131125 69 110 0.0 0.9 0.00 0.00 0.00 76 1012.9
20260506130620 68 116 0.0 1.7 0.00 0.00 0.00 77 1012.9
20260506130120 67 114 0.0 2.6 0.00 0.00 0.00 78 1013.0
20260506125127 67 152 0.9 2.6 0.00 0.00 0.00 79 1013.0
20260506124116 66 115 0.9 2.6 0.00 0.00 0.00 79 1013.2
20260506123111 66 191 0.0 1.7 0.00 0.00 0.00 80 1013.0
20260506122110 66 211 0.9 3.5 0.00 0.00 0.00 80 1013.0
20260506121106 65 208 0.0 1.7 0.00 0.00 0.00 82 1013.0
20260506120609 65 207 0.0 0.0 0.00 0.00 0.00 82 1013.0
20260506120105 64 205 0.0 1.7 0.00 0.00 0.00 82 1012.9
20260506115603 64 207 0.0 1.7 0.00 0.00 0.00 82 1012.8
20260506115101 64 191 0.0 1.7 0.00 0.00 0.00 82 1013.1
20260506114557 64 192 0.0 1.7 0.00 0.00 0.00 82 1013.1
20260506113545 64 182 0.0 2.6 0.00 0.00 0.00 82 1013.0
20260506113040 64 247 0.0 0.0 0.00 0.00 0.00 83 1012.8
20260506112539 64 247 0.0 0.0 0.00 0.00 0.00 83 1012.9
20260506112038 64 247 0.0 0.0 0.00 0.00 0.00 84 1012.8
20260506111539 63 247 0.0 0.0 0.00 0.00 0.00 85 1013.0
20260506111039 63 247 0.0 0.9 0.00 0.00 0.00 85 1013.0
20260506110544 63 247 0.0 0.9 0.00 0.00 0.00 85 1013.1
20260506110042 62 247 0.0 1.7 0.00 0.00 0.00 85 1013.0
20260506105541 62 247 0.0 1.7 0.00 0.00 0.00 85 1013.1
20260506105044 62 245 0.0 0.0 0.00 0.00 0.00 85 1013.1
20260506104533 62 245 0.0 0.9 0.00 0.00 0.00 85 1013.2
20260506104044 62 245 0.0 1.7 0.00 0.00 0.00 85 1013.3
20260506103534 62 244 0.0 1.7 0.00 0.00 0.00 85 1013.3
20260506103040 62 234 0.0 0.0 0.00 0.00 0.00 86 1013.4
20260506102530 62 235 0.0 0.0 0.00 0.00 0.00 86 1013.2
20260506102036 62 235 0.0 0.0 0.00 0.00 0.00 86 1013.3
20260506101042 62 235 0.0 0.0 0.00 0.00 0.00 86 1012.9
20260506100533 62 235 0.0 0.0 0.00 0.00 0.00 86 1012.9
20260506095522 62 235 0.0 0.0 0.00 0.00 0.00 85 1012.9
20260506095019 62 235 0.0 0.0 0.00 0.00 0.00 85 1013.0
20260506094518 62 235 0.0 0.0 0.00 0.00 0.00 85 1013.0
20260506094013 62 235 0.0 0.0 0.00 0.00 0.00 85 1013.1
20260506093514 62 235 0.0 0.0 0.00 0.00 0.00 85 1013.0
20260506093017 62 235 0.0 0.0 0.00 0.00 0.00 85 1012.9
20260506092515 62 235 0.0 0.0 0.00 0.00 0.00 85 1013.0
20260506091515 62 235 0.0 0.0 0.00 0.00 0.00 85 1012.9
20260506091015 62 232 0.0 0.0 0.00 0.00 0.00 85 1012.9
20260506090515 63 232 0.0 0.0 0.00 0.00 0.00 85 1013.0
20260506090009 63 232 0.0 0.0 0.00 0.00 0.00 84 1012.9
20260506085508 63 232 0.0 1.7 0.00 0.00 0.00 84 1012.9
20260506085009 63 232 0.0 1.7 0.00 0.00 0.00 84 1013.2
20260506084512 63 238 0.0 1.7 0.00 0.00 0.00 84 1013.2
20260506084009 63 238 0.0 1.7 0.00 0.00 0.00 84 1013.1
20260506083511 63 236 0.0 0.9 0.00 0.00 0.00 84 1013.1
20260506083010 63 224 0.0 1.7 0.00 0.00 0.00 84 1013.1
20260506082509 63 224 0.0 1.7 0.00 0.00 0.00 84 1013.3
20260506081504 63 175 0.0 1.7 0.00 0.00 0.00 84 1013.2
20260506080505 63 189 0.0 1.7 0.00 0.00 0.00 84 1013.3
20260506073505 63 164 0.0 4.3 0.00 0.00 0.00 84 1013.2
20260506073011 63 163 0.0 4.3 0.00 0.00 0.00 84 1013.2
20260506072505 63 221 0.0 1.7 0.00 0.00 0.00 84 1013.1
20260506072008 63 215 0.0 1.7 0.00 0.00 0.00 84 1013.1
20260506071504 63 205 0.0 1.7 0.00 0.00 0.00 84 1013.2
20260506071002 63 205 0.0 1.7 0.00 0.00 0.00 84 1013.3
20260506070504 63 241 0.0 1.7 0.00 0.00 0.00 84 1013.3
20260506062454 64 229 0.0 0.9 0.00 0.00 0.00 82 1013.5
20260506061947 64 240 0.0 0.9 0.00 0.00 0.00 82 1013.5
20260506061445 64 239 0.0 1.7 0.00 0.00 0.00 82 1013.5
20260506060932 64 203 0.0 1.7 0.00 0.00 0.00 82 1013.5
20260506060426 64 179 0.0 1.7 0.00 0.00 0.00 82 1013.5
20260506051407 65 160 0.0 1.7 0.00 0.00 0.00 80 1013.8
20260506050911 65 163 0.0 1.7 0.00 0.00 0.00 80 1013.9
20260506050406 65 162 0.0 1.7 0.00 0.00 0.00 80 1014.0
20260506044905 66 236 0.0 1.7 0.00 0.00 0.00 80 1014.0
20260506044405 66 132 0.0 1.7 0.00 0.00 0.00 80 1014.0
20260506041856 66 164 0.0 2.6 0.00 0.00 0.00 79 1014.0
20260506040844 66 127 0.9 1.7 0.00 0.00 0.00 79 1013.9
20260506040342 66 200 0.0 1.7 0.00 0.00 0.00 79 1013.9
20260506035842 66 283 0.0 1.7 0.00 0.00 0.00 79 1013.9
20260506035342 66 257 0.9 1.7 0.00 0.00 0.00 79 1014.0
20260506034336 66 238 0.9 1.7 0.00 0.00 0.00 79 1013.9
20260506033837 67 346 0.9 1.7 0.00 0.00 0.00 78 1014.0
20260506033339 67 351 0.0 1.7 0.00 0.00 0.00 78 1014.0
20260506032833 67 305 0.0 0.9 0.00 0.00 0.00 78 1014.0
20260506032333 67 295 0.0 1.7 0.00 0.00 0.00 78 1013.9
20260506031831 67 274 0.9 1.7 0.00 0.00 0.00 78 1014.0
20260506031330 67 316 0.0 1.7 0.00 0.00 0.00 78 1014.0
20260506030832 67 32 0.0 0.9 0.00 0.00 0.00 78 1014.0
20260506030333 67 306 0.0 1.7 0.00 0.00 0.00 77 1014.0
20260506025832 67 290 0.0 1.7 0.00 0.00 0.00 77 1014.0
20260506025331 67 38 0.0 2.6 0.00 0.00 0.00 77 1014.0
20260506024833 67 69 0.0 2.6 0.00 0.00 0.00 77 1014.1
20260506024334 67 313 0.0 1.7 0.00 0.00 0.00 77 1014.0
20260506023832 67 227 0.0 1.7 0.00 0.00 0.00 77 1014.0
20260506023333 67 158 0.0 1.7 0.00 0.00 0.00 77 1014.2
20260506022833 67 158 0.0 1.7 0.00 0.00 0.00 77 1014.0
20260506022335 68 92 0.0 2.6 0.00 0.00 0.00 76 1014.0
20260506021829 68 109 0.0 2.6 0.00 0.00 0.00 76 1014.0
20260506021330 68 307 0.0 1.7 0.00 0.00 0.00 75 1014.2
20260506020829 68 156 0.0 1.7 0.00 0.00 0.00 76 1014.0
20260506020331 68 265 0.0 1.7 0.00 0.00 0.00 75 1014.0
20260506015330 68 42 0.0 0.0 0.00 0.00 0.00 75 1013.9
20260506014838 68 42 0.0 0.0 0.00 0.00 0.00 75 1013.9
20260506014330 68 42 0.0 0.0 0.00 0.00 0.00 75 1014.0
20260506013831 68 42 0.0 0.0 0.00 0.00 0.00 76 1013.9
20260506013338 68 49 0.0 0.0 0.00 0.00 0.00 76 1013.9
20260506012330 68 57 0.0 0.9 0.00 0.00 0.00 76 1013.8
20260506011831 68 54 0.0 0.9 0.00 0.00 0.00 76 1013.8
20260506011330 68 47 0.0 0.9 0.00 0.00 0.00 77 1013.7
20260506010832 68 53 0.0 0.0 0.00 0.00 0.00 77 1013.7
20260506010330 68 53 0.0 0.0 0.00 0.00 0.00 77 1013.7
20260506005337 68 41 0.0 0.0 0.00 0.00 0.00 77 1013.6
20260506004839 68 41 0.0 0.0 0.00 0.00 0.00 77 1013.4
20260506004335 68 41 0.0 0.0 0.00 0.00 0.00 77 1013.4
20260506003830 68 40 0.0 0.0 0.00 0.00 0.00 77 1013.4
20260506003332 68 40 0.0 0.0 0.00 0.00 0.00 77 1013.2
20260506002330 68 40 0.0 0.0 0.00 0.00 0.00 76 1013.2
20260506001834 68 40 0.0 0.9 0.00 0.00 0.00 76 1013.1
20260506000829 69 41 0.0 0.0 0.00 0.00 0.00 75 1013.1
20260506000332 69 41 0.0 0.0 0.00 0.00 0.00 75 1013.1
20260505235834 69 41 0.0 0.9 0.00 0.00 0.00 74 1013.1
20260505235331 69 41 0.9 0.9 0.00 0.00 0.00 74 1013.0
20260505234327 69 53 0.9 1.7 0.00 0.00 0.00 72 1013.0
20260505233828 69 76 0.0 1.7 0.00 0.00 0.00 72 1012.9
20260505233324 70 86 0.0 1.7 0.00 0.00 0.00 71 1012.9
20260505232826 70 89 0.0 1.7 0.00 0.00 0.00 70 1012.8
20260505232325 70 103 0.0 1.7 0.00 0.00 0.00 70 1013.0
20260505231825 70 104 0.0 0.0 0.00 0.00 0.00 69 1012.9
20260505230343 71 112 0.9 2.6 0.00 0.00 0.00 68 1012.9
20260505225320 71 355 0.9 1.7 0.00 0.00 0.00 68 1012.8
20260505224821 72 350 0.9 1.7 0.00 0.00 0.00 67 1012.7
20260505223819 72 345 0.9 1.7 0.00 0.00 0.00 66 1012.8
20260505222812 73 355 0.9 1.7 0.00 0.00 0.00 65 1012.8
20260505221816 73 355 0.9 1.7 0.00 0.00 0.00 65 1012.9
20260505220810 74 314 0.9 2.6 0.00 0.00 0.00 64 1012.8
20260505220316 74 278 0.9 2.6 0.00 0.00 0.00 64 1012.8
20260505215807 74 355 0.9 1.7 0.00 0.00 0.00 64 1012.6
20260505215305 74 298 0.9 1.7 0.00 0.00 0.00 63 1012.5
20260505214805 74 344 0.9 1.7 0.00 0.00 0.00 63 1012.6
20260505213759 75 350 0.9 1.7 0.00 0.00 0.00 63 1012.5
20260505212246 75 355 0.9 1.7 0.00 0.00 0.00 61 1012.4
20260505211744 76 355 0.9 1.7 0.00 0.00 0.00 61 1012.6
20260505211242 76 351 0.9 1.7 0.00 0.00 0.00 61 1012.7
20260505210244 76 0 0.9 2.6 0.00 0.00 0.00 60 1012.6
20260505205238 77 350 0.9 2.6 0.00 0.00 0.00 59 1012.4
20260505204739 77 355 0.9 2.6 0.00 0.00 0.00 60 1012.3
20260505204238 77 355 0.9 1.7 0.00 0.00 0.00 60 1012.3
20260505203745 77 351 0.0 1.7 0.00 0.00 0.00 61 1012.4
20260505203235 77 355 0.9 1.7 0.00 0.00 0.00 60 1012.4
20260505202739 78 355 0.9 1.7 0.00 0.00 0.00 60 1012.5
20260505202236 78 355 0.9 1.7 0.00 0.00 0.00 58 1012.5
20260505201742 78 355 0.9 1.7 0.00 0.00 0.00 58 1012.7
20260505201230 79 355 0.9 1.7 0.00 0.00 0.00 58 1012.7
20260505200730 79 351 0.9 1.7 0.00 0.00 0.00 57 1012.7
20260505200231 79 351 0.9 1.7 0.00 0.00 0.00 57 1012.8
20260505195732 79 355 0.9 2.6 0.00 0.00 0.00 57 1012.7
20260505195229 79 350 0.9 2.6 0.00 0.00 0.00 57 1012.8
20260505194216 80 39 0.9 2.6 0.00 0.00 0.00 56 1012.7
20260505193718 80 72 0.9 2.6 0.00 0.00 0.00 56 1012.8
20260505192712 83 0 0.9 3.5 0.00 0.00 0.00 49 1012.9
20260505192211 83 344 0.9 3.5 0.00 0.00 0.00 40 1012.9
20260505191205 83 314 0.9 1.7 0.00 0.00 0.00 41 1012.9
20260505190702 83 266 0.9 1.7 0.00 0.00 0.00 42 1013.0
20260505190203 83 305 0.9 2.6 0.00 0.00 0.00 40 1012.9
20260505185702 83 213 0.9 2.6 0.00 0.00 0.00 39 1013.0
20260505183709 82 111 0.9 3.5 0.00 0.00 0.00 48 1012.9
20260505183204 82 150 0.9 2.6 0.00 0.00 0.00 46 1013.0
20260505182728 82 331 0.0 1.7 0.00 0.00 0.00 47 1013.1
20260505182203 82 297 0.9 3.5 0.00 0.00 0.00 51 1013.0
20260505181209 82 166 0.9 3.5 0.00 0.00 0.00 49 1013.2
20260505180711 82 74 0.9 3.5 0.00 0.00 0.00 48 1013.2
20260505180206 82 252 0.0 2.6 0.00 0.00 0.00 51 1013.2
20260505175657 82 109 0.0 2.6 0.00 0.00 0.00 49 1013.3
20260505175150 81 198 0.9 5.2 0.00 0.00 0.00 52 1013.4
20260505174648 81 333 0.9 5.2 0.00 0.00 0.00 48 1013.4
20260505173636 81 127 0.9 5.2 0.00 0.00 0.00 49 1013.3
20260505173138 81 123 0.9 3.5 0.00 0.00 0.00 49 1013.4
20260505172640 80 119 0.9 3.5 0.00 0.00 0.00 49 1013.4
20260505172138 80 133 0.9 4.3 0.00 0.00 0.00 49 1013.4